Date_Time,Julian_Date,Latitude,Longitude,Instrument_Depth,U,V,Speed,Direction
(yyyy-mm-dd hh:mn:ss UTC),(JD),(+ deg. North),(+ deg. East),(m),(cm/s),(cm/s),(cm/s),(deg True)
1983-07-27 19:00:00 UTC,2445543.291667,29.6650,-93.4789,0086,-2.88,-0.83,3.0000,254.0000
1983-07-27 19:30:00 UTC,2445543.312500,29.6650,-93.4789,0086,-2.62,-1.45,3.0000,241.0000
1983-07-27 20:00:00 UTC,2445543.333333,29.6650,-93.4789,0086,-2.46,-1.72,3.0000,235.0000
1983-07-27 20:30:00 UTC,2445543.354167,29.6650,-93.4789,0086,-2.62,-1.45,3.0000,241.0000
1983-07-27 21:00:00 UTC,2445543.375000,29.6650,-93.4789,0086,-3.43,-2.06,4.0000,239.0000
1983-07-27 21:30:00 UTC,2445543.395833,29.6650,-93.4789,0086,-2.46,-1.72,3.0000,235.0000
1983-07-27 22:00:00 UTC,2445543.416667,29.6650,-93.4789,0086,-1.81,-0.85,2.0000,245.0000
1983-07-27 22:30:00 UTC,2445543.437500,29.6650,-93.4789,0086,-2.80,-1.08,3.0000,249.0000
1983-07-27 23:00:00 UTC,2445543.458333,29.6650,-93.4789,0086,-2.54,-1.59,3.0000,238.0000
1983-07-27 23:30:00 UTC,2445543.479167,29.6650,-93.4789,0086,-2.40,-1.81,3.0000,233.0000
1983-07-28 00:00:00 UTC,2445543.500000,29.6650,-93.4789,0086,-2.16,-2.08,3.0000,226.0000
1983-07-28 00:30:00 UTC,2445543.520833,29.6650,-93.4789,0086,-1.23,-1.58,2.0000,218.0000
1983-07-28 01:00:00 UTC,2445543.541667,29.6650,-93.4789,0086,-1.66,-1.12,2.0000,236.0000
1983-07-28 01:30:00 UTC,2445543.562500,29.6650,-93.4789,0086,-2.80,-1.08,3.0000,249.0000
1983-07-28 02:00:00 UTC,2445543.583333,29.6650,-93.4789,0086,-2.85,-0.93,3.0000,252.0000
1983-07-28 02:30:00 UTC,2445543.604167,29.6650,-93.4789,0086,-2.98,-0.37,3.0000,263.0000
1983-07-28 03:00:00 UTC,2445543.625000,29.6650,-93.4789,0086,-3.00,-0.10,3.0000,268.0000
1983-07-28 03:30:00 UTC,2445543.645833,29.6650,-93.4789,0086,-3.00,-0.00,3.0000,270.0000
1983-07-28 04:00:00 UTC,2445543.666667,29.6650,-93.4789,0086,-2.88,0.83,3.0000,286.0000
1983-07-28 04:30:00 UTC,2445543.687500,29.6650,-93.4789,0086,-3.56,1.82,4.0000,297.0000
1983-07-28 05:00:00 UTC,2445543.708333,29.6650,-93.4789,0086,-2.72,1.27,3.0000,295.0000
1983-07-28 05:30:00 UTC,2445543.729167,29.6650,-93.4789,0086,-2.92,0.67,3.0000,283.0000
1983-07-28 06:00:00 UTC,2445543.750000,29.6650,-93.4789,0086,-3.00,-0.10,3.0000,268.0000
1983-07-28 06:30:00 UTC,2445543.770833,29.6650,-93.4789,0086,-2.94,-0.57,3.0000,259.0000
1983-07-28 07:00:00 UTC,2445543.791667,29.6650,-93.4789,0086,-1.92,-0.55,2.0000,254.0000
1983-07-28 07:30:00 UTC,2445543.812500,29.6650,-93.4789,0086,-2.98,-0.37,3.0000,263.0000
1983-07-28 08:00:00 UTC,2445543.833333,29.6650,-93.4789,0086,-4.00,0.14,4.0000,272.0000
1983-07-28 08:30:00 UTC,2445543.854167,29.6650,-93.4789,0086,-5.00,-0.17,5.0000,268.0000
1983-07-28 09:00:00 UTC,2445543.875000,29.6650,-93.4789,0086,-4.81,-1.38,5.0000,254.0000
1983-07-28 09:30:00 UTC,2445543.895833,29.6650,-93.4789,0086,-5.52,-2.34,6.0000,247.0000
1983-07-28 10:00:00 UTC,2445543.916667,29.6650,-93.4789,0086,-5.48,-2.44,6.0000,246.0000
1983-07-28 10:30:00 UTC,2445543.937500,29.6650,-93.4789,0086,-5.14,-3.09,6.0000,239.0000
1983-07-28 11:00:00 UTC,2445543.958333,29.6650,-93.4789,0086,-4.10,-2.87,5.0000,235.0000
1983-07-28 11:30:00 UTC,2445543.979167,29.6650,-93.4789,0086,-4.37,-2.42,5.0000,241.0000
1983-07-28 12:00:00 UTC,2445544.000000,29.6650,-93.4789,0086,-4.33,-2.50,5.0000,240.0000
1983-07-28 12:30:00 UTC,2445544.020833,29.6650,-93.4789,0086,-3.32,-2.24,4.0000,236.0000
1983-07-28 13:00:00 UTC,2445544.041667,29.6650,-93.4789,0086,-2.74,-1.22,3.0000,246.0000
1983-07-28 13:30:00 UTC,2445544.062500,29.6650,-93.4789,0086,-1.96,-0.38,2.0000,259.0000
1983-07-28 14:00:00 UTC,2445544.083333,29.6650,-93.4789,0086,-1.70,-1.06,2.0000,238.0000
1983-07-28 14:30:00 UTC,2445544.104167,29.6650,-93.4789,0086,-2.12,-2.12,3.0000,225.0000
1983-07-28 15:00:00 UTC,2445544.125000,29.6650,-93.4789,0086,-3.28,-2.29,4.0000,235.0000
1983-07-28 15:30:00 UTC,2445544.145833,29.6650,-93.4789,0086,-3.63,-1.69,4.0000,245.0000
1983-07-28 16:00:00 UTC,2445544.166667,29.6650,-93.4789,0086,-3.78,-1.30,4.0000,251.0000
1983-07-28 16:30:00 UTC,2445544.187500,29.6650,-93.4789,0086,-2.95,-0.52,3.0000,260.0000
1983-07-28 17:00:00 UTC,2445544.208333,29.6650,-93.4789,0086,-1.99,0.21,2.0000,276.0000
1983-07-28 17:30:00 UTC,2445544.229167,29.6650,-93.4789,0086,-1.90,0.62,2.0000,288.0000
1983-07-28 18:00:00 UTC,2445544.250000,29.6650,-93.4789,0086,-0.95,0.31,1.0000,288.0000
1983-07-28 18:30:00 UTC,2445544.270833,29.6650,-93.4789,0086,-0.00,-0.00,0.0000,255.0000
1983-07-28 19:00:00 UTC,2445544.291667,29.6650,-93.4789,0086,-1.00,0.03,1.0000,272.0000
1983-07-28 19:30:00 UTC,2445544.312500,29.6650,-93.4789,0086,-2.95,0.52,3.0000,280.0000
1983-07-28 20:00:00 UTC,2445544.333333,29.6650,-93.4789,0086,-3.97,0.49,4.0000,277.0000
1983-07-28 20:30:00 UTC,2445544.354167,29.6650,-93.4789,0086,-5.00,0.17,5.0000,272.0000
1983-07-28 21:00:00 UTC,2445544.375000,29.6650,-93.4789,0086,-4.96,-0.61,5.0000,263.0000
1983-07-28 21:30:00 UTC,2445544.395833,29.6650,-93.4789,0086,-3.95,-0.63,4.0000,261.0000
1983-07-28 22:00:00 UTC,2445544.416667,29.6650,-93.4789,0086,-3.90,-0.90,4.0000,257.0000
1983-07-28 22:30:00 UTC,2445544.437500,29.6650,-93.4789,0086,-3.32,-2.24,4.0000,236.0000
1983-07-28 23:00:00 UTC,2445544.458333,29.6650,-93.4789,0086,-2.16,-2.08,3.0000,226.0000
1983-07-28 23:30:00 UTC,2445544.479167,29.6650,-93.4789,0086,-2.01,-2.23,3.0000,222.0000
1983-07-29 00:00:00 UTC,2445544.500000,29.6650,-93.4789,0086,-2.05,-2.19,3.0000,223.0000
1983-07-29 00:30:00 UTC,2445544.520833,29.6650,-93.4789,0086,-4.15,-2.80,5.0000,236.0000
1983-07-29 01:00:00 UTC,2445544.541667,29.6650,-93.4789,0086,-4.57,-2.03,5.0000,246.0000
1983-07-29 01:30:00 UTC,2445544.562500,29.6650,-93.4789,0086,-2.99,-0.21,3.0000,266.0000
1983-07-29 02:00:00 UTC,2445544.583333,29.6650,-93.4789,0086,-1.31,1.51,2.0000,319.0000
1983-07-29 02:30:00 UTC,2445544.604167,29.6650,-93.4789,0086,-3.00,0.10,3.0000,272.0000
1983-07-29 03:00:00 UTC,2445544.625000,29.6650,-93.4789,0086,-3.15,-2.46,4.0000,232.0000
1983-07-29 03:30:00 UTC,2445544.645833,29.6650,-93.4789,0086,-1.85,-2.36,3.0000,218.0000
1983-07-29 04:00:00 UTC,2445544.666667,29.6650,-93.4789,0086,0.78,-0.63,1.0000,129.0000
1983-07-29 04:30:00 UTC,2445544.687500,29.6650,-93.4789,0086,1.71,1.03,2.0000,59.0000
1983-07-29 05:00:00 UTC,2445544.708333,29.6650,-93.4789,0086,-1.12,2.78,3.0000,338.0000
1983-07-29 05:30:00 UTC,2445544.729167,29.6650,-93.4789,0086,-5.03,3.27,6.0000,303.0000
1983-07-29 06:00:00 UTC,2445544.750000,29.6650,-93.4789,0086,-6.66,2.16,7.0000,288.0000
1983-07-29 06:30:00 UTC,2445544.770833,29.6650,-93.4789,0086,-5.77,1.65,6.0000,286.0000
1983-07-29 07:00:00 UTC,2445544.791667,29.6650,-93.4789,0086,-5.87,1.25,6.0000,282.0000
1983-07-29 07:30:00 UTC,2445544.812500,29.6650,-93.4789,0086,-7.98,0.56,8.0000,274.0000
1983-07-29 08:00:00 UTC,2445544.833333,29.6650,-93.4789,0086,-11.00,-0.00,11.0000,270.0000
1983-07-29 08:30:00 UTC,2445544.854167,29.6650,-93.4789,0086,-10.00,0.17,10.0000,271.0000
1983-07-29 09:00:00 UTC,2445544.875000,29.6650,-93.4789,0086,-4.99,0.26,5.0000,273.0000
1983-07-29 09:30:00 UTC,2445544.895833,29.6650,-93.4789,0086,-3.60,-1.75,4.0000,244.0000
1983-07-29 10:00:00 UTC,2445544.916667,29.6650,-93.4789,0086,-4.91,-3.44,6.0000,235.0000
1983-07-29 10:30:00 UTC,2445544.937500,29.6650,-93.4789,0086,-5.44,-2.54,6.0000,245.0000
1983-07-29 11:00:00 UTC,2445544.958333,29.6650,-93.4789,0086,-5.74,-1.75,6.0000,253.0000
1983-07-29 11:30:00 UTC,2445544.979167,29.6650,-93.4789,0086,-5.20,-3.00,6.0000,240.0000
1983-07-29 12:00:00 UTC,2445545.000000,29.6650,-93.4789,0086,-3.61,-4.79,6.0000,217.0000
1983-07-29 12:30:00 UTC,2445545.020833,29.6650,-93.4789,0086,-3.00,-5.20,6.0000,210.0000
1983-07-29 13:00:00 UTC,2445545.041667,29.6650,-93.4789,0086,-3.08,-3.94,5.0000,218.0000
1983-07-29 13:30:00 UTC,2445545.062500,29.6650,-93.4789,0086,-3.60,-3.47,5.0000,226.0000
1983-07-29 14:00:00 UTC,2445545.083333,29.6650,-93.4789,0086,-3.19,-2.41,4.0000,233.0000
1983-07-29 14:30:00 UTC,2445545.104167,29.6650,-93.4789,0086,-3.80,-1.24,4.0000,252.0000
1983-07-29 15:00:00 UTC,2445545.125000,29.6650,-93.4789,0086,-4.81,-1.38,5.0000,254.0000
1983-07-29 15:30:00 UTC,2445545.145833,29.6650,-93.4789,0086,-6.44,-2.74,7.0000,247.0000
1983-07-29 16:00:00 UTC,2445545.166667,29.6650,-93.4789,0086,-7.00,-3.88,8.0000,241.0000
1983-07-29 16:30:00 UTC,2445545.187500,29.6650,-93.4789,0086,-6.63,-4.47,8.0000,236.0000
1983-07-29 17:00:00 UTC,2445545.208333,29.6650,-93.4789,0086,-5.59,-4.21,7.0000,233.0000
1983-07-29 17:30:00 UTC,2445545.229167,29.6650,-93.4789,0086,-5.52,-4.31,7.0000,232.0000
1983-07-29 18:00:00 UTC,2445545.250000,29.6650,-93.4789,0086,-6.47,-4.70,8.0000,234.0000
1983-07-29 18:30:00 UTC,2445545.270833,29.6650,-93.4789,0086,-7.46,-5.03,9.0000,236.0000
1983-07-29 19:00:00 UTC,2445545.291667,29.6650,-93.4789,0086,-8.19,-5.74,10.0000,235.0000
1983-07-29 19:30:00 UTC,2445545.312500,29.6650,-93.4789,0086,-7.99,-6.02,10.0000,233.0000
1983-07-29 20:00:00 UTC,2445545.333333,29.6650,-93.4789,0086,-6.79,-5.90,9.0000,229.0000
1983-07-29 20:30:00 UTC,2445545.354167,29.6650,-93.4789,0086,-5.03,-6.22,8.0000,219.0000
1983-07-29 21:00:00 UTC,2445545.375000,29.6650,-93.4789,0086,-4.38,-8.99,10.0000,206.0000
1983-07-29 21:30:00 UTC,2445545.395833,29.6650,-93.4789,0086,-3.91,-11.35,12.0000,199.0000
1983-07-29 22:00:00 UTC,2445545.416667,29.6650,-93.4789,0086,-4.33,-13.31,14.0000,198.0000
1983-07-29 22:30:00 UTC,2445545.437500,29.6650,-93.4789,0086,-4.66,-12.14,13.0000,201.0000
1983-07-29 23:00:00 UTC,2445545.458333,29.6650,-93.4789,0086,-4.88,-10.96,12.0000,204.0000
1983-07-29 23:30:00 UTC,2445545.479167,29.6650,-93.4789,0086,-4.12,-10.20,11.0000,202.0000
1983-07-30 00:00:00 UTC,2445545.500000,29.6650,-93.4789,0086,-1.91,-9.82,10.0000,191.0000
1983-07-30 00:30:00 UTC,2445545.520833,29.6650,-93.4789,0086,0.00,-8.00,8.0000,180.0000
1983-07-30 01:00:00 UTC,2445545.541667,29.6650,-93.4789,0086,-1.34,-6.87,7.0000,191.0000
1983-07-30 01:30:00 UTC,2445545.562500,29.6650,-93.4789,0086,-4.77,-7.63,9.0000,212.0000
1983-07-30 02:00:00 UTC,2445545.583333,29.6650,-93.4789,0086,-5.88,-8.09,10.0000,216.0000
1983-07-30 02:30:00 UTC,2445545.604167,29.6650,-93.4789,0086,-4.90,-7.55,9.0000,213.0000
1983-07-30 03:00:00 UTC,2445545.625000,29.6650,-93.4789,0086,-3.81,-5.87,7.0000,213.0000
1983-07-30 03:30:00 UTC,2445545.645833,29.6650,-93.4789,0086,-4.32,-4.17,6.0000,226.0000
1983-07-30 04:00:00 UTC,2445545.666667,29.6650,-93.4789,0086,-6.18,-3.29,7.0000,242.0000
1983-07-30 04:30:00 UTC,2445545.687500,29.6650,-93.4789,0086,-7.46,-5.03,9.0000,236.0000
1983-07-30 05:00:00 UTC,2445545.708333,29.6650,-93.4789,0086,-7.50,-8.04,11.0000,223.0000
1983-07-30 05:30:00 UTC,2445545.729167,29.6650,-93.4789,0086,-7.39,-9.46,12.0000,218.0000
1983-07-30 06:00:00 UTC,2445545.750000,29.6650,-93.4789,0086,-6.92,-8.55,11.0000,219.0000
1983-07-30 06:30:00 UTC,2445545.770833,29.6650,-93.4789,0086,-7.78,-7.78,11.0000,225.0000
1983-07-30 07:00:00 UTC,2445545.791667,29.6650,-93.4789,0086,-9.83,-6.88,12.0000,235.0000
1983-07-30 07:30:00 UTC,2445545.812500,29.6650,-93.4789,0086,-9.83,-6.88,12.0000,235.0000
1983-07-30 08:00:00 UTC,2445545.833333,29.6650,-93.4789,0086,-9.46,-7.39,12.0000,232.0000
1983-07-30 08:30:00 UTC,2445545.854167,29.6650,-93.4789,0086,-9.19,-7.71,12.0000,230.0000
1983-07-30 09:00:00 UTC,2445545.875000,29.6650,-93.4789,0086,-9.71,-7.05,12.0000,234.0000
1983-07-30 09:30:00 UTC,2445545.895833,29.6650,-93.4789,0086,-10.69,-5.45,12.0000,243.0000
1983-07-30 10:00:00 UTC,2445545.916667,29.6650,-93.4789,0086,-10.96,-4.88,12.0000,246.0000
1983-07-30 10:30:00 UTC,2445545.937500,29.6650,-93.4789,0086,-10.96,-4.88,12.0000,246.0000
1983-07-30 11:00:00 UTC,2445545.958333,29.6650,-93.4789,0086,-11.88,-5.29,13.0000,246.0000
1983-07-30 11:30:00 UTC,2445545.979167,29.6650,-93.4789,0086,-11.88,-5.29,13.0000,246.0000
1983-07-30 12:00:00 UTC,2445546.000000,29.6650,-93.4789,0086,-11.13,-4.50,12.0000,248.0000
1983-07-30 12:30:00 UTC,2445546.020833,29.6650,-93.4789,0086,-10.13,-4.30,11.0000,247.0000
1983-07-30 13:00:00 UTC,2445546.041667,29.6650,-93.4789,0086,-8.22,-3.66,9.0000,246.0000
1983-07-30 13:30:00 UTC,2445546.062500,29.6650,-93.4789,0086,-7.31,-3.25,8.0000,246.0000
1983-07-30 14:00:00 UTC,2445546.083333,29.6650,-93.4789,0086,-5.20,-3.00,6.0000,240.0000
1983-07-30 14:30:00 UTC,2445546.104167,29.6650,-93.4789,0086,-3.19,-2.41,4.0000,233.0000
1983-07-30 15:00:00 UTC,2445546.125000,29.6650,-93.4789,0086,-2.84,-0.98,3.0000,251.0000
1983-07-30 15:30:00 UTC,2445546.145833,29.6650,-93.4789,0086,-2.92,0.67,3.0000,283.0000
1983-07-30 16:00:00 UTC,2445546.166667,29.6650,-93.4789,0086,-1.77,0.94,2.0000,298.0000
1983-07-30 16:30:00 UTC,2445546.187500,29.6650,-93.4789,0086,-0.00,0.00,0.0000,337.0000
1983-07-30 17:00:00 UTC,2445546.208333,29.6650,-93.4789,0086,0.91,-0.42,1.0000,115.0000
1983-07-30 17:30:00 UTC,2445546.229167,29.6650,-93.4789,0086,1.26,-1.55,2.0000,141.0000
1983-07-30 18:00:00 UTC,2445546.250000,29.6650,-93.4789,0086,0.62,-2.93,3.0000,168.0000
1983-07-30 18:30:00 UTC,2445546.270833,29.6650,-93.4789,0086,-0.98,-2.84,3.0000,199.0000
1983-07-30 19:00:00 UTC,2445546.291667,29.6650,-93.4789,0086,-1.00,-0.09,1.0000,265.0000
1983-07-30 19:30:00 UTC,2445546.312500,29.6650,-93.4789,0086,-0.91,1.78,2.0000,333.0000
1983-07-30 20:00:00 UTC,2445546.333333,29.6650,-93.4789,0086,0.72,1.87,2.0000,21.0000
1983-07-30 20:30:00 UTC,2445546.354167,29.6650,-93.4789,0086,4.70,1.71,5.0000,70.0000
1983-07-30 21:00:00 UTC,2445546.375000,29.6650,-93.4789,0086,7.97,0.70,8.0000,85.0000
1983-07-30 21:30:00 UTC,2445546.395833,29.6650,-93.4789,0086,6.00,0.10,6.0000,89.0000
1983-07-30 22:00:00 UTC,2445546.416667,29.6650,-93.4789,0086,2.57,-1.55,3.0000,121.0000
1983-07-30 22:30:00 UTC,2445546.437500,29.6650,-93.4789,0086,2.80,-4.15,5.0000,146.0000
1983-07-30 23:00:00 UTC,2445546.458333,29.6650,-93.4789,0086,1.65,-5.77,6.0000,164.0000
1983-07-30 23:30:00 UTC,2445546.479167,29.6650,-93.4789,0086,1.22,-6.89,7.0000,170.0000
1983-07-31 00:00:00 UTC,2445546.500000,29.6650,-93.4789,0086,3.66,-8.22,9.0000,156.0000
1983-07-31 00:30:00 UTC,2445546.520833,29.6650,-93.4789,0086,5.83,-9.33,11.0000,148.0000
1983-07-31 01:00:00 UTC,2445546.541667,29.6650,-93.4789,0086,6.71,-9.95,12.0000,146.0000
1983-07-31 01:30:00 UTC,2445546.562500,29.6650,-93.4789,0086,6.36,-10.18,12.0000,148.0000
1983-07-31 02:00:00 UTC,2445546.583333,29.6650,-93.4789,0086,4.82,-9.89,11.0000,154.0000
1983-07-31 02:30:00 UTC,2445546.604167,29.6650,-93.4789,0086,2.85,-10.63,11.0000,165.0000
1983-07-31 03:00:00 UTC,2445546.625000,29.6650,-93.4789,0086,0.00,-11.00,11.0000,180.0000
1983-07-31 03:30:00 UTC,2445546.645833,29.6650,-93.4789,0086,-2.42,-9.70,10.0000,194.0000
1983-07-31 04:00:00 UTC,2445546.666667,29.6650,-93.4789,0086,-3.52,-8.28,9.0000,203.0000
1983-07-31 04:30:00 UTC,2445546.687500,29.6650,-93.4789,0086,-3.80,-8.16,9.0000,205.0000
1983-07-31 05:00:00 UTC,2445546.708333,29.6650,-93.4789,0086,-5.03,-7.46,9.0000,214.0000
1983-07-31 05:30:00 UTC,2445546.729167,29.6650,-93.4789,0086,-6.79,-5.90,9.0000,229.0000
1983-07-31 06:00:00 UTC,2445546.750000,29.6650,-93.4789,0086,-7.55,-4.90,9.0000,237.0000
1983-07-31 06:30:00 UTC,2445546.770833,29.6650,-93.4789,0086,-8.57,-5.15,10.0000,239.0000
1983-07-31 07:00:00 UTC,2445546.791667,29.6650,-93.4789,0086,-9.62,-5.33,11.0000,241.0000
1983-07-31 07:30:00 UTC,2445546.812500,29.6650,-93.4789,0086,-10.60,-5.63,12.0000,242.0000
1983-07-31 08:00:00 UTC,2445546.833333,29.6650,-93.4789,0086,-10.29,-6.18,12.0000,239.0000
1983-07-31 08:30:00 UTC,2445546.854167,29.6650,-93.4789,0086,-9.33,-5.83,11.0000,238.0000
1983-07-31 09:00:00 UTC,2445546.875000,29.6650,-93.4789,0086,-9.71,-5.16,11.0000,242.0000
1983-07-31 09:30:00 UTC,2445546.895833,29.6650,-93.4789,0086,-9.06,-4.23,10.0000,245.0000
1983-07-31 10:00:00 UTC,2445546.916667,29.6650,-93.4789,0086,-10.39,-6.00,12.0000,240.0000
1983-07-31 10:30:00 UTC,2445546.937500,29.6650,-93.4789,0086,-11.61,-7.83,14.0000,236.0000
1983-07-31 11:00:00 UTC,2445546.958333,29.6650,-93.4789,0086,-12.58,-8.17,15.0000,237.0000
1983-07-31 11:30:00 UTC,2445546.979167,29.6650,-93.4789,0086,-12.24,-6.79,14.0000,241.0000
1983-07-31 12:00:00 UTC,2445547.000000,29.6650,-93.4789,0086,-11.68,-5.70,13.0000,244.0000
1983-07-31 12:30:00 UTC,2445547.020833,29.6650,-93.4789,0086,-10.27,-3.94,11.0000,249.0000
1983-07-31 13:00:00 UTC,2445547.041667,29.6650,-93.4789,0086,-8.69,-2.33,9.0000,255.0000
1983-07-31 13:30:00 UTC,2445547.062500,29.6650,-93.4789,0086,-8.56,-2.78,9.0000,252.0000
1983-07-31 14:00:00 UTC,2445547.083333,29.6650,-93.4789,0086,-8.09,-3.95,9.0000,244.0000
1983-07-31 14:30:00 UTC,2445547.104167,29.6650,-93.4789,0086,-8.02,-4.09,9.0000,243.0000
1983-07-31 15:00:00 UTC,2445547.125000,29.6650,-93.4789,0086,-7.19,-3.51,8.0000,244.0000
1983-07-31 15:30:00 UTC,2445547.145833,29.6650,-93.4789,0086,-7.00,-3.88,8.0000,241.0000
1983-07-31 16:00:00 UTC,2445547.166667,29.6650,-93.4789,0086,-6.86,-4.12,8.0000,239.0000
1983-07-31 16:30:00 UTC,2445547.187500,29.6650,-93.4789,0086,-6.71,-4.36,8.0000,237.0000
1983-07-31 17:00:00 UTC,2445547.208333,29.6650,-93.4789,0086,-6.63,-4.47,8.0000,236.0000
1983-07-31 17:30:00 UTC,2445547.229167,29.6650,-93.4789,0086,-6.86,-4.12,8.0000,239.0000
1983-07-31 18:00:00 UTC,2445547.250000,29.6650,-93.4789,0086,-5.14,-3.09,6.0000,239.0000
1983-07-31 18:30:00 UTC,2445547.270833,29.6650,-93.4789,0086,-4.91,-3.44,6.0000,235.0000
1983-07-31 19:00:00 UTC,2445547.291667,29.6650,-93.4789,0086,-4.73,-3.69,6.0000,232.0000
1983-07-31 19:30:00 UTC,2445547.312500,29.6650,-93.4789,0086,-5.59,-4.21,7.0000,233.0000
1983-07-31 20:00:00 UTC,2445547.333333,29.6650,-93.4789,0086,-5.73,-4.02,7.0000,235.0000
1983-07-31 20:30:00 UTC,2445547.354167,29.6650,-93.4789,0086,-5.20,-3.00,6.0000,240.0000
1983-07-31 21:00:00 UTC,2445547.375000,29.6650,-93.4789,0086,-4.49,-2.19,5.0000,244.0000
1983-07-31 21:30:00 UTC,2445547.395833,29.6650,-93.4789,0086,-3.89,-3.15,5.0000,231.0000
1983-07-31 22:00:00 UTC,2445547.416667,29.6650,-93.4789,0086,-4.39,-4.09,6.0000,227.0000
1983-07-31 22:30:00 UTC,2445547.437500,29.6650,-93.4789,0086,-5.80,-3.91,7.0000,236.0000
1983-07-31 23:00:00 UTC,2445547.458333,29.6650,-93.4789,0086,-5.87,-3.81,7.0000,237.0000
1983-07-31 23:30:00 UTC,2445547.479167,29.6650,-93.4789,0086,-5.80,-3.91,7.0000,236.0000
1983-08-01 00:00:00 UTC,2445547.500000,29.6650,-93.4789,0086,-6.06,-3.50,7.0000,240.0000
1983-08-01 00:30:00 UTC,2445547.520833,29.6650,-93.4789,0086,-5.94,-3.71,7.0000,238.0000
1983-08-01 01:00:00 UTC,2445547.541667,29.6650,-93.4789,0086,-5.66,-4.11,7.0000,234.0000
1983-08-01 01:30:00 UTC,2445547.562500,29.6650,-93.4789,0086,-4.91,-3.44,6.0000,235.0000
1983-08-01 02:00:00 UTC,2445547.583333,29.6650,-93.4789,0086,-5.20,-3.00,6.0000,240.0000
1983-08-01 02:30:00 UTC,2445547.604167,29.6650,-93.4789,0086,-5.03,-3.27,6.0000,237.0000
1983-08-01 03:00:00 UTC,2445547.625000,29.6650,-93.4789,0086,-5.73,-4.02,7.0000,235.0000
1983-08-01 03:30:00 UTC,2445547.645833,29.6650,-93.4789,0086,-5.35,-2.72,6.0000,243.0000
1983-08-01 04:00:00 UTC,2445547.666667,29.6650,-93.4789,0086,-4.37,-2.42,5.0000,241.0000
1983-08-01 04:30:00 UTC,2445547.687500,29.6650,-93.4789,0086,-2.46,-3.15,4.0000,218.0000
1983-08-01 05:00:00 UTC,2445547.708333,29.6650,-93.4789,0086,-2.80,-4.15,5.0000,214.0000
1983-08-01 05:30:00 UTC,2445547.729167,29.6650,-93.4789,0086,-3.47,-3.60,5.0000,224.0000
1983-08-01 06:00:00 UTC,2445547.750000,29.6650,-93.4789,0086,-3.99,-3.01,5.0000,233.0000
1983-08-01 06:30:00 UTC,2445547.770833,29.6650,-93.4789,0086,-3.77,-3.28,5.0000,229.0000
1983-08-01 07:00:00 UTC,2445547.791667,29.6650,-93.4789,0086,-2.65,-4.24,5.0000,212.0000
1983-08-01 07:30:00 UTC,2445547.812500,29.6650,-93.4789,0086,-2.63,-5.39,6.0000,206.0000
1983-08-01 08:00:00 UTC,2445547.833333,29.6650,-93.4789,0086,-3.36,-4.97,6.0000,214.0000
1983-08-01 08:30:00 UTC,2445547.854167,29.6650,-93.4789,0086,-4.41,-5.44,7.0000,219.0000
1983-08-01 09:00:00 UTC,2445547.875000,29.6650,-93.4789,0086,-5.20,-4.68,7.0000,228.0000
1983-08-01 09:30:00 UTC,2445547.895833,29.6650,-93.4789,0086,-6.00,-3.61,7.0000,239.0000
1983-08-01 10:00:00 UTC,2445547.916667,29.6650,-93.4789,0086,-5.59,-4.21,7.0000,233.0000
1983-08-01 10:30:00 UTC,2445547.937500,29.6650,-93.4789,0086,-4.95,-4.95,7.0000,225.0000
1983-08-01 11:00:00 UTC,2445547.958333,29.6650,-93.4789,0086,-5.44,-4.41,7.0000,231.0000
1983-08-01 11:30:00 UTC,2445547.979167,29.6650,-93.4789,0086,-5.80,-3.91,7.0000,236.0000
1983-08-01 12:00:00 UTC,2445548.000000,29.6650,-93.4789,0086,-6.63,-4.47,8.0000,236.0000
1983-08-01 12:30:00 UTC,2445548.020833,29.6650,-93.4789,0086,-7.63,-4.77,9.0000,238.0000
1983-08-01 13:00:00 UTC,2445548.041667,29.6650,-93.4789,0086,-7.79,-4.50,9.0000,240.0000
1983-08-01 13:30:00 UTC,2445548.062500,29.6650,-93.4789,0086,-7.13,-3.63,8.0000,243.0000
1983-08-01 14:00:00 UTC,2445548.083333,29.6650,-93.4789,0086,-7.06,-3.76,8.0000,242.0000
1983-08-01 14:30:00 UTC,2445548.104167,29.6650,-93.4789,0086,-6.86,-4.12,8.0000,239.0000
1983-08-01 15:00:00 UTC,2445548.125000,29.6650,-93.4789,0086,-5.94,-3.71,7.0000,238.0000
1983-08-01 15:30:00 UTC,2445548.145833,29.6650,-93.4789,0086,-5.56,-2.25,6.0000,248.0000
1983-08-01 16:00:00 UTC,2445548.166667,29.6650,-93.4789,0086,-5.80,-1.55,6.0000,255.0000
1983-08-01 16:30:00 UTC,2445548.187500,29.6650,-93.4789,0086,-4.49,-2.19,5.0000,244.0000
1983-08-01 17:00:00 UTC,2445548.208333,29.6650,-93.4789,0086,-4.33,-2.50,5.0000,240.0000
1983-08-01 17:30:00 UTC,2445548.229167,29.6650,-93.4789,0086,-4.76,-1.55,5.0000,252.0000
1983-08-01 18:00:00 UTC,2445548.250000,29.6650,-93.4789,0086,-4.83,-1.29,5.0000,255.0000
1983-08-01 18:30:00 UTC,2445548.270833,29.6650,-93.4789,0086,-5.35,-2.72,6.0000,243.0000
1983-08-01 19:00:00 UTC,2445548.291667,29.6650,-93.4789,0086,-6.06,-3.50,7.0000,240.0000
1983-08-01 19:30:00 UTC,2445548.312500,29.6650,-93.4789,0086,-6.29,-3.07,7.0000,244.0000
1983-08-01 20:00:00 UTC,2445548.333333,29.6650,-93.4789,0086,-6.24,-3.18,7.0000,243.0000
1983-08-01 20:30:00 UTC,2445548.354167,29.6650,-93.4789,0086,-6.24,-3.18,7.0000,243.0000
1983-08-01 21:00:00 UTC,2445548.375000,29.6650,-93.4789,0086,-6.44,-2.74,7.0000,247.0000
1983-08-01 21:30:00 UTC,2445548.395833,29.6650,-93.4789,0086,-6.54,-2.51,7.0000,249.0000
1983-08-01 22:00:00 UTC,2445548.416667,29.6650,-93.4789,0086,-6.73,-1.93,7.0000,254.0000
1983-08-01 22:30:00 UTC,2445548.437500,29.6650,-93.4789,0086,-6.73,-1.93,7.0000,254.0000
1983-08-01 23:00:00 UTC,2445548.458333,29.6650,-93.4789,0086,-6.18,-3.29,7.0000,242.0000
1983-08-01 23:30:00 UTC,2445548.479167,29.6650,-93.4789,0086,-6.86,-4.12,8.0000,239.0000
1983-08-02 00:00:00 UTC,2445548.500000,29.6650,-93.4789,0086,-6.93,-4.00,8.0000,240.0000
1983-08-02 00:30:00 UTC,2445548.520833,29.6650,-93.4789,0086,-5.66,-4.11,7.0000,234.0000
1983-08-02 01:00:00 UTC,2445548.541667,29.6650,-93.4789,0086,-5.59,-4.21,7.0000,233.0000
1983-08-02 01:30:00 UTC,2445548.562500,29.6650,-93.4789,0086,-6.86,-4.12,8.0000,239.0000
1983-08-02 02:00:00 UTC,2445548.583333,29.6650,-93.4789,0086,-6.18,-3.29,7.0000,242.0000
1983-08-02 02:30:00 UTC,2445548.604167,29.6650,-93.4789,0086,-5.03,-3.27,6.0000,237.0000
1983-08-02 03:00:00 UTC,2445548.625000,29.6650,-93.4789,0086,-5.28,-4.59,7.0000,229.0000
1983-08-02 03:30:00 UTC,2445548.645833,29.6650,-93.4789,0086,-5.36,-4.50,7.0000,230.0000
1983-08-02 04:00:00 UTC,2445548.666667,29.6650,-93.4789,0086,-5.94,-3.71,7.0000,238.0000
1983-08-02 04:30:00 UTC,2445548.687500,29.6650,-93.4789,0086,-5.44,-2.54,6.0000,245.0000
1983-08-02 05:00:00 UTC,2445548.708333,29.6650,-93.4789,0086,-4.33,-2.50,5.0000,240.0000
1983-08-02 05:30:00 UTC,2445548.729167,29.6650,-93.4789,0086,-4.46,-4.01,6.0000,228.0000
1983-08-02 06:00:00 UTC,2445548.750000,29.6650,-93.4789,0086,-4.53,-3.94,6.0000,229.0000
1983-08-02 06:30:00 UTC,2445548.770833,29.6650,-93.4789,0086,-4.85,-3.53,6.0000,234.0000
1983-08-02 07:00:00 UTC,2445548.791667,29.6650,-93.4789,0086,-4.79,-3.61,6.0000,233.0000
1983-08-02 07:30:00 UTC,2445548.812500,29.6650,-93.4789,0086,-4.79,-3.61,6.0000,233.0000
1983-08-02 08:00:00 UTC,2445548.833333,29.6650,-93.4789,0086,-4.46,-2.27,5.0000,243.0000